Location: *
(34.6903°N, 135.5184°E)
Time: 07:02:38
(UTC+00:00)

Meteor 2-9 Rocket - Pass Details

Date: 22 September 2019
Orbit: 791 x 896 km, 81.3° (Epoch: 15 October)

Event Time Altitude Azimuth Distance (km) Brightness Sun altitude
Rises 20:17:23 0° 352° (N) 3,314 7.3 -6.7°
Reaches altitude 10° 20:19:46 10° 352° (N) 2,372 6.5 -6.2°
Maximum altitude 20:25:07 88° 84° (E) 796 4.2 -5.1°
Drops below altitude 10° 20:30:25 10° 173° (S) 2,349 6.6 -4.1°
Sets 20:32:46 0° 173° (S) 3,279 7.3 -3.6°
